Weather History for Hartford, CT

Change the Weather History Date:

Saturday, May 17, 2014

  Actual Average Record
Temperature  
Mean Temperature 62 °F -  
Max Temperature 71 °F 70 °F 87 °F (1991)
Min Temperature 54 °F 48 °F 30 °F (1984)
Degree Days  
Heating Degree Days 3    
Growing Degree Days 12 (Base 50)    
Moisture  
Dew Point 53 °F    
Average Humidity 74    
Maximum Humidity 100    
Minimum Humidity 28    
Precipitation  
Precipitation 1.44 in - - ()
Sea Level Pressure  
Sea Level Pressure 29.90 in    
Wind  
Wind Speed 10 mph (WSW)    
Max Wind Speed 16 mph    
Max Gust Speed 28 mph    
Visibility 7 miles    
Events Rain    
Averages and records for this station are not official NWS values.
T = Trace of Precipitation, MM = Missing Value Source: NWS Daily Summary

Daily Weather History Graph

Daily Weather History Graph

Search for Another Location

Airport:

Trip Planner

Search our weather history database for the weather conditions in past years. The results will help you decide how hot, cold, wet, or windy it might be!

Date:

Astronomy

May. 17, 2014 Rise Set
Actual Time 5:28 AM EDT 8:05 PM EDT
Civil Twilight 4:57 AM EDT 8:37 PM EDT
Nautical Twilight 4:17 AM EDT 9:17 PM EDT
Astronomical Twilight 3:32 AM EDT 10:03 PM EDT
Moon 11:03 PM EDT (5/17) 8:08 AM EDT (5/17)
Length of Visible Light 15h 40m
Length of Day
14h 36m
Waning Gibbous, 89% of the Moon is Illuminated
May 17
Waning Gibbous
May 21
Last Quarter
May 28
New
Jun 5
First Quarter
Jun 13
Full

Hourly Weather History & Observations

Time (EDT) Temp. Dew Point Humidity Pressure Visibility Wind Dir Wind Speed Gust Speed Precip Events Conditions
12:26 AM 66.9 °F 63.0 °F 87% 29.84 in 6.0 mi SSE 16.1 mph 26.5 mph 0.02 in Rain Light Rain
12:53 AM 66.9 °F 64.0 °F 90% 29.83 in 9.0 mi SSE 13.8 mph 26.5 mph 0.03 in Rain Light Rain
1:53 AM 66.0 °F 63.0 °F 90% 29.81 in 5.0 mi South 16.1 mph 27.6 mph 0.10 in Rain Rain
2:05 AM 66.0 °F 63.0 °F 90% 29.81 in 1.8 mi South 12.7 mph 26.5 mph 0.15 in Rain Heavy Rain
2:08 AM 66.0 °F 63.0 °F 90% 29.81 in 1.5 mi SSW 10.4 mph 21.9 mph 0.18 in Rain Heavy Rain
2:12 AM 64.9 °F 63.0 °F 93% 29.82 in 0.8 mi SW 13.8 mph 20.7 mph 0.37 in Rain Heavy Rain
2:24 AM 64.9 °F 63.0 °F 93% 29.82 in 1.0 mi South 9.2 mph - 0.63 in Rain Heavy Rain
2:46 AM 64.0 °F 62.1 °F 93% 29.81 in 2.5 mi South 10.4 mph 17.3 mph 0.84 in Rain Heavy Rain
2:53 AM 64.0 °F 62.1 °F 93% 29.82 in 3.0 mi South 9.2 mph - 0.87 in Rain Heavy Rain
3:00 AM 64.0 °F 62.1 °F 93% 29.82 in 2.5 mi South 8.1 mph - 0.05 in Rain Heavy Rain
3:10 AM 63.0 °F 62.1 °F 97% 29.82 in 1.5 mi South 9.2 mph - 0.13 in Rain Heavy Rain
3:17 AM 63.0 °F 62.1 °F 97% 29.82 in 3.0 mi SSE 8.1 mph - 0.16 in Rain Rain
3:47 AM 62.6 °F 62.6 °F 100% 29.82 in 9.0 mi South 4.6 mph - 0.20 in Rain Light Rain
3:53 AM 63.0 °F 62.1 °F 97% 29.83 in 9.0 mi SW 4.6 mph - 0.21 in Rain Light Rain
4:06 AM 63.0 °F 61.0 °F 93% 29.84 in 4.0 mi SSW 6.9 mph - 0.03 in Rain Rain
4:16 AM 63.0 °F 61.0 °F 93% 29.84 in 2.5 mi SW 4.6 mph - 0.06 in Rain Rain
4:20 AM 63.0 °F 61.0 °F 93% 29.85 in 3.0 mi SW 5.8 mph - 0.08 in Rain Light Rain
4:30 AM 63.0 °F 60.1 °F 90% 29.85 in 2.5 mi SW 4.6 mph - 0.11 in Rain Rain
4:33 AM 63.0 °F 60.1 °F 90% 29.86 in 4.0 mi SW 4.6 mph - 0.11 in Rain Light Rain
4:37 AM 62.1 °F 60.1 °F 93% 29.85 in 4.0 mi WSW 4.6 mph - 0.12 in Rain Rain
4:43 AM 62.1 °F 60.1 °F 93% 29.85 in 2.5 mi WSW 3.5 mph - 0.14 in Rain Rain
4:53 AM 60.1 °F 57.0 °F 90% 29.85 in 3.0 mi WNW 6.9 mph - 0.17 in Rain Rain
5:35 AM 57.9 °F 55.9 °F 93% 29.87 in 10.0 mi West 6.9 mph - 0.06 in   Overcast
5:53 AM 57.0 °F 55.0 °F 93% 29.90 in 10.0 mi West 8.1 mph - 0.06 in   Overcast
6:22 AM 55.0 °F 52.0 °F 89% 29.90 in 10.0 mi WNW 6.9 mph - N/A   Overcast
6:53 AM 54.0 °F 50.0 °F 86% 29.92 in 10.0 mi WNW 6.9 mph - N/A   Overcast
7:22 AM 54.0 °F 46.9 °F 77% 29.94 in 10.0 mi NW 5.8 mph - N/A   Overcast
7:53 AM 54.0 °F 46.9 °F 77% 29.96 in 10.0 mi WNW 4.6 mph - N/A   Overcast
8:53 AM 55.9 °F 45.0 °F 67% 29.98 in 10.0 mi WNW 4.6 mph - N/A   Overcast
9:53 AM 59.0 °F 45.0 °F 60% 29.98 in 10.0 mi West 6.9 mph - N/A   Clear
10:53 AM 61.0 °F 46.0 °F 58% 29.98 in 10.0 mi Variable 5.8 mph - N/A   Clear
11:53 AM 64.9 °F 45.0 °F 48% 29.99 in 10.0 mi WNW 8.1 mph - N/A   Clear
12:53 PM 66.0 °F 44.1 °F 45% 29.98 in 10.0 mi Variable 5.8 mph - N/A   Clear
1:53 PM 69.1 °F 44.1 °F 40% 29.98 in 10.0 mi SW 6.9 mph 17.3 mph N/A   Partly Cloudy
2:53 PM 70.0 °F 39.9 °F 33% 29.97 in 10.0 mi Variable 3.5 mph - N/A   Mostly Cloudy
3:53 PM 69.1 °F 39.0 °F 33% 29.98 in 10.0 mi WSW 6.9 mph - N/A   Scattered Clouds
4:53 PM 69.1 °F 37.9 °F 32% 29.99 in 10.0 mi West 8.1 mph - N/A   Scattered Clouds
5:53 PM 70.0 °F 35.1 °F 28% 29.99 in 10.0 mi West 10.4 mph - N/A   Partly Cloudy
6:53 PM 68.0 °F 34.0 °F 28% 30.00 in 10.0 mi West 10.4 mph - N/A   Clear
7:53 PM 66.0 °F 36.0 °F 33% 30.01 in 10.0 mi WNW 6.9 mph - N/A   Clear
8:53 PM 63.0 °F 37.9 °F 40% 30.04 in 10.0 mi WNW 4.6 mph - N/A   Clear
10:53 PM 57.9 °F 39.9 °F 51% 30.09 in 10.0 mi NNW 6.9 mph - N/A   Partly Cloudy
11:53 PM 57.0 °F 39.9 °F 53% 30.10 in 10.0 mi NNW 4.6 mph - N/A   Mostly Cloudy